Find Starlink 32658

NORAD ID: 62999 Int'l Des: 2025-031 Owner: SPXS Country: US Constellation: starlink operational
LEOCIRCULAR

リアルタイム位置

3D地球を読み込み中...

Starlink 32658について

説明を読み込み中...

次回通過

Passes for default location (London). Set your location on the main map for personalized predictions.

高度履歴

Loading altitude history...

軌道要素

1 62999U 25031U 26126.14327215 .00024272 00000-0 88825-3 0 9999
2 62999 42.9986 178.7213 0002697 266.2031 93.8512 15.27593086 69883
Epoch: May 6, 2026 • Age: 8 hours

現在のステータス

高度 492.1 km
速度 7.62 km/s
衛星直下点 -36.91°S, 94.12°E
打ち上げ日 Feb 11, 2025
運用期間 1.2 years
タイプ internet

技術仕様

分類 Payload
質量 730.00 kg
乾燥質量 700.00 kg
総質量 730.00 kg
長さ 0.30 m
直径 4.10 m
スパン 29.00 m
形状 Box + pan
製造者 SPXS
バスタイプ Starlink V2M
フェーズステータス In Orbit
所有者/国 SPXS/US

Most Searched